| time (UTC) | temp F | wind direction | speed knots | gust knots | rain 1hr in | rain 24hr in | rain mn in | humidity % | barometer mb |
| 20260902112707 | 72 | 302 | 7.0 | 7.8 | 0.00 | 0.00 | 0.00 | 38 | 1013.9 |
| 20260902111707 | 71 | 304 | 7.0 | 7.8 | 0.00 | 0.00 | 0.00 | 39 | 1014.2 |
| 20260902111207 | 71 | 310 | 7.0 | 7.8 | 0.00 | 0.00 | 0.00 | 39 | 1014.1 |
| 20260902110706 | 71 | 318 | 5.2 | 7.0 | 0.00 | 0.00 | 0.00 | 40 | 1014.1 |
| 20260902110206 | 71 | 297 | 5.2 | 6.1 | 0.00 | 0.00 | 0.00 | 40 | 1014.4 |
| 20260902105207 | 71 | 299 | 7.8 | 10.4 | 0.00 | 0.00 | 0.00 | 39 | 1014.3 |
| 20260902104706 | 71 | 306 | 8.7 | 10.4 | 0.00 | 0.00 | 0.00 | 40 | 1014.2 |
| 20260902104206 | 72 | 294 | 5.2 | 8.7 | 0.00 | 0.00 | 0.00 | 40 | 1014.3 |
| 20260902103706 | 72 | 270 | 7.8 | 8.7 | 0.00 | 0.00 | 0.00 | 38 | 1014.1 |
| 20260902103206 | 72 | 269 | 7.0 | 7.8 | 0.00 | 0.00 | 0.00 | 38 | 1014.1 |
| 20260902102706 | 73 | 269 | 6.1 | 7.8 | 0.00 | 0.00 | 0.00 | 37 | 1014.2 |
| 20260902102207 | 73 | 275 | 6.1 | 7.8 | 0.00 | 0.00 | 0.00 | 37 | 1014.0 |
| 20260902101706 | 73 | 288 | 6.1 | 7.0 | 0.00 | 0.00 | 0.00 | 37 | 1014.1 |
| 20260902101206 | 73 | 291 | 6.1 | 8.7 | 0.00 | 0.00 | 0.00 | 37 | 1014.0 |
| 20260902100706 | 73 | 292 | 7.0 | 7.8 | 0.00 | 0.00 | 0.00 | 37 | 1014.1 |
| 20260902100206 | 73 | 298 | 7.0 | 7.8 | 0.00 | 0.00 | 0.00 | 37 | 1013.9 |
| 20260902095706 | 73 | 299 | 7.0 | 7.8 | 0.00 | 0.00 | 0.00 | 37 | 1013.9 |
| 20260902095207 | 73 | 295 | 7.0 | 7.8 | 0.00 | 0.00 | 0.00 | 38 | 1013.9 |
| 20260902094206 | 73 | 284 | 6.1 | 7.0 | 0.00 | 0.00 | 0.00 | 37 | 1013.9 |
| 20260902093706 | 73 | 282 | 6.1 | 7.0 | 0.00 | 0.00 | 0.00 | 38 | 1013.9 |
| 20260902093206 | 73 | 288 | 6.1 | 7.0 | 0.00 | 0.00 | 0.00 | 37 | 1013.7 |
| 20260902092706 | 74 | 281 | 7.0 | 7.8 | 0.00 | 0.00 | 0.00 | 36 | 1013.7 |
| 20260902092206 | 74 | 270 | 6.1 | 7.8 | 0.00 | 0.00 | 0.00 | 36 | 1013.7 |
| 20260902091706 | 74 | 278 | 7.0 | 8.7 | 0.00 | 0.00 | 0.00 | 35 | 1013.6 |
| 20260902090706 | 74 | 288 | 7.0 | 8.7 | 0.00 | 0.00 | 0.00 | 36 | 1013.4 |
| 20260902090206 | 74 | 291 | 7.0 | 7.8 | 0.00 | 0.00 | 0.00 | 36 | 1013.4 |
| 20260902085706 | 73 | 302 | 7.0 | 8.7 | 0.00 | 0.00 | 0.00 | 37 | 1013.5 |
| 20260902085206 | 73 | 328 | 6.1 | 8.7 | 0.00 | 0.00 | 0.00 | 37 | 1013.4 |
| 20260902084706 | 74 | 301 | 4.3 | 5.2 | 0.00 | 0.00 | 0.00 | 36 | 1013.3 |
| 20260902084206 | 74 | 275 | 4.3 | 6.1 | 0.00 | 0.00 | 0.00 | 36 | 1013.2 |
| 20260902083706 | 74 | 267 | 6.1 | 7.0 | 0.00 | 0.00 | 0.00 | 36 | 1013.2 |
| 20260902083206 | 74 | 258 | 6.1 | 7.0 | 0.00 | 0.00 | 0.00 | 36 | 1013.2 |
| 20260902082206 | 75 | 265 | 6.1 | 7.8 | 0.00 | 0.00 | 0.00 | 35 | 1013.0 |
| 20260902081706 | 75 | 260 | 6.1 | 7.8 | 0.00 | 0.00 | 0.00 | 35 | 1013.0 |
| 20260902081206 | 75 | 260 | 7.0 | 8.7 | 0.00 | 0.00 | 0.00 | 34 | 1013.0 |
| 20260902080706 | 76 | 264 | 7.0 | 8.7 | 0.00 | 0.00 | 0.00 | 33 | 1013.3 |
| 20260902080206 | 76 | 262 | 7.0 | 10.4 | 0.00 | 0.00 | 0.00 | 33 | 1013.0 |
| 20260902073706 | 77 | 264 | 7.0 | 8.7 | 0.00 | 0.00 | 0.00 | 32 | 1012.6 |
| 20260902073206 | 77 | 264 | 7.0 | 8.7 | 0.00 | 0.00 | 0.00 | 32 | 1012.5 |
| 20260902072706 | 77 | 262 | 7.0 | 8.7 | 0.00 | 0.00 | 0.00 | 32 | 1012.7 |
| 20260902071706 | 78 | 263 | 7.8 | 8.7 | 0.00 | 0.00 | 0.00 | 31 | 1012.3 |
| 20260902071206 | 78 | 267 | 8.7 | 12.2 | 0.00 | 0.00 | 0.00 | 30 | 1012.4 |
| 20260902070705 | 78 | 264 | 8.7 | 13.0 | 0.00 | 0.00 | 0.00 | 30 | 1012.3 |
| 20260902070206 | 79 | 265 | 8.7 | 14.8 | 0.00 | 0.00 | 0.00 | 29 | 1012.4 |
| 20260902065706 | 79 | 273 | 12.2 | 17.4 | 0.00 | 0.00 | 0.00 | 29 | 1012.3 |
| 20260902065206 | 79 | 254 | 12.2 | 17.4 | 0.00 | 0.00 | 0.00 | 28 | 1012.2 |
| 20260902064205 | 79 | 268 | 11.3 | 18.2 | 0.00 | 0.00 | 0.00 | 28 | 1012.2 |
| 20260902063706 | 79 | 271 | 14.8 | 19.1 | 0.00 | 0.00 | 0.00 | 28 | 1012.3 |
| 20260902063206 | 80 | 261 | 17.4 | 22.6 | 0.00 | 0.00 | 0.00 | 28 | 1012.1 |
| 20260902062205 | 80 | 256 | 13.0 | 18.2 | 0.00 | 0.00 | 0.00 | 28 | 1012.2 |
| 20260902060706 | 80 | 274 | 9.6 | 14.8 | 0.00 | 0.00 | 0.00 | 28 | 1012.3 |
| 20260902060205 | 79 | 279 | 13.0 | 17.4 | 0.00 | 0.00 | 0.00 | 27 | 1012.2 |
| 20260902055705 | 80 | 270 | 11.3 | 15.6 | 0.00 | 0.00 | 0.00 | 27 | 1012.1 |
| 20260902055205 | 79 | 264 | 12.2 | 19.1 | 0.00 | 0.00 | 0.00 | 27 | 1012.0 |
| 20260902054705 | 79 | 281 | 11.3 | 17.4 | 0.00 | 0.00 | 0.00 | 28 | 1012.1 |
| 20260902054206 | 79 | 266 | 13.9 | 20.0 | 0.00 | 0.00 | 0.00 | 27 | 1012.1 |
| 20260902053705 | 80 | 276 | 14.8 | 21.7 | 0.00 | 0.00 | 0.00 | 27 | 1012.2 |
| 20260902053205 | 80 | 272 | 12.2 | 21.7 | 0.00 | 0.00 | 0.00 | 27 | 1012.1 |
| 20260902052706 | 80 | 246 | 12.2 | 19.1 | 0.00 | 0.00 | 0.00 | 27 | 1012.3 |
| 20260902052205 | 80 | 273 | 12.2 | 20.0 | 0.00 | 0.00 | 0.00 | 27 | 1012.3 |
| 20260902051706 | 80 | 271 | 8.7 | 14.8 | 0.00 | 0.00 | 0.00 | 27 | 1012.2 |
| 20260902051206 | 80 | 262 | 11.3 | 20.0 | 0.00 | 0.00 | 0.00 | 27 | 1012.1 |
| 20260902050706 | 80 | 277 | 15.6 | 20.9 | 0.00 | 0.00 | 0.00 | 27 | 1012.3 |
| 20260902050205 | 80 | 263 | 10.4 | 17.4 | 0.00 | 0.00 | 0.00 | 27 | 1012.1 |
| 20260902045706 | 80 | 248 | 10.4 | 17.4 | 0.00 | 0.00 | 0.00 | 27 | 1012.2 |
| 20260902045206 | 81 | 248 | 5.2 | 13.0 | 0.00 | 0.00 | 0.00 | 28 | 1012.1 |
| 20260902044705 | 80 | 234 | 7.0 | 10.4 | 0.00 | 0.00 | 0.00 | 29 | 1012.0 |
| 20260902043705 | 80 | 264 | 7.0 | 10.4 | 0.00 | 0.00 | 0.00 | 29 | 1012.1 |
| 20260902043205 | 80 | 241 | 7.0 | 10.4 | 0.00 | 0.00 | 0.00 | 28 | 1012.1 |
| 20260902042705 | 81 | 246 | 10.4 | 12.2 | 0.00 | 0.00 | 0.00 | 28 | 1012.1 |
| 20260902040705 | 80 | 269 | 11.3 | 15.6 | 0.00 | 0.00 | 0.00 | 29 | 1012.0 |
| 20260902040205 | 79 | 272 | 12.2 | 21.7 | 0.00 | 0.00 | 0.00 | 30 | 1012.1 |
| 20260902035706 | 79 | 296 | 8.7 | 17.4 | 0.00 | 0.00 | 0.00 | 30 | 1011.9 |
| 20260902035206 | 79 | 283 | 12.2 | 14.8 | 0.00 | 0.00 | 0.00 | 30 | 1012.1 |
| 20260902034205 | 78 | 297 | 12.2 | 20.9 | 0.00 | 0.00 | 0.00 | 29 | 1012.3 |
| 20260902033705 | 79 | 299 | 14.8 | 19.1 | 0.00 | 0.00 | 0.00 | 29 | 1012.3 |
| 20260902033205 | 79 | 267 | 7.8 | 11.3 | 0.00 | 0.00 | 0.00 | 30 | 1012.4 |
| 20260902032706 | 79 | 273 | 8.7 | 13.0 | 0.00 | 0.00 | 0.00 | 30 | 1012.5 |
| 20260902032205 | 79 | 289 | 13.9 | 17.4 | 0.00 | 0.00 | 0.00 | 29 | 1012.4 |
| 20260902031705 | 80 | 270 | 10.4 | 18.2 | 0.00 | 0.00 | 0.00 | 29 | 1012.6 |
| 20260902031205 | 79 | 287 | 6.1 | 14.8 | 0.00 | 0.00 | 0.00 | 30 | 1012.8 |
| 20260902030705 | 79 | 306 | 10.4 | 13.0 | 0.00 | 0.00 | 0.00 | 30 | 1013.0 |
| 20260902030206 | 79 | 327 | 10.4 | 17.4 | 0.00 | 0.00 | 0.00 | 30 | 1012.8 |
| 20260902025705 | 78 | 289 | 14.8 | 20.0 | 0.00 | 0.00 | 0.00 | 30 | 1012.9 |
| 20260902025205 | 78 | 316 | 11.3 | 17.4 | 0.00 | 0.00 | 0.00 | 30 | 1013.0 |
| 20260902024706 | 79 | 292 | 10.4 | 13.9 | 0.00 | 0.00 | 0.00 | 29 | 1013.2 |
| 20260902024205 | 79 | 267 | 12.2 | 18.2 | 0.00 | 0.00 | 0.00 | 29 | 1013.3 |
| 20260902023706 | 79 | 280 | 13.9 | 19.1 | 0.00 | 0.00 | 0.00 | 30 | 1013.2 |
| 20260902022705 | 79 | 280 | 7.8 | 20.9 | 0.00 | 0.00 | 0.00 | 31 | 1013.4 |
| 20260902022205 | 78 | 274 | 13.9 | 20.0 | 0.00 | 0.00 | 0.00 | 31 | 1013.5 |
| 20260902021205 | 78 | 301 | 10.4 | 19.1 | 0.00 | 0.00 | 0.00 | 32 | 1013.9 |
| 20260902020705 | 78 | 287 | 13.0 | 19.1 | 0.00 | 0.00 | 0.00 | 32 | 1013.9 |
| 20260902020205 | 78 | 297 | 14.8 | 19.1 | 0.00 | 0.00 | 0.00 | 32 | 1014.2 |
| 20260902015705 | 78 | 306 | 8.7 | 17.4 | 0.00 | 0.00 | 0.00 | 33 | 1014.1 |
| 20260902015205 | 78 | 300 | 10.4 | 13.9 | 0.00 | 0.00 | 0.00 | 33 | 1014.1 |
| 20260902014705 | 77 | 318 | 4.3 | 12.2 | 0.00 | 0.00 | 0.00 | 36 | 1014.2 |
| 20260902014205 | 77 | 339 | 8.7 | 12.2 | 0.00 | 0.00 | 0.00 | 37 | 1014.6 |
| 20260902013706 | 76 | 303 | 7.8 | 14.8 | 0.00 | 0.00 | 0.00 | 36 | 1014.4 |
| 20260902013205 | 76 | 343 | 7.0 | 13.0 | 0.00 | 0.00 | 0.00 | 37 | 1014.6 |
| 20260902012705 | 76 | 316 | 11.3 | 18.2 | 0.00 | 0.00 | 0.00 | 37 | 1014.8 |
| 20260902012205 | 76 | 314 | 12.2 | 17.4 | 0.00 | 0.00 | 0.00 | 37 | 1015.0 |
| 20260902011705 | 76 | 301 | 11.3 | 17.4 | 0.00 | 0.00 | 0.00 | 38 | 1015.1 |
| 20260902011205 | 75 | 313 | 10.4 | 15.6 | 0.00 | 0.00 | 0.00 | 38 | 1015.2 |
| 20260902010705 | 75 | 303 | 11.3 | 14.8 | 0.00 | 0.00 | 0.00 | 38 | 1015.3 |
| 20260902010205 | 75 | 298 | 10.4 | 14.8 | 0.00 | 0.00 | 0.00 | 39 | 1015.4 |
| 20260902005705 | 74 | 316 | 10.4 | 15.6 | 0.00 | 0.00 | 0.00 | 39 | 1015.4 |
| 20260902005205 | 74 | 327 | 12.2 | 17.4 | 0.00 | 0.00 | 0.00 | 40 | 1015.5 |
| 20260902004705 | 74 | 308 | 12.2 | 18.2 | 0.00 | 0.00 | 0.00 | 40 | 1015.4 |
| 20260902004206 | 74 | 301 | 13.9 | 18.2 | 0.00 | 0.00 | 0.00 | 40 | 1015.6 |
| 20260902003705 | 73 | 316 | 13.0 | 17.4 | 0.00 | 0.00 | 0.00 | 41 | 1015.7 |
| 20260902003205 | 72 | 320 | 11.3 | 15.6 | 0.00 | 0.00 | 0.00 | 41 | 1015.7 |
| 20260902002705 | 72 | 314 | 13.9 | 19.1 | 0.00 | 0.00 | 0.00 | 42 | 1015.9 |
| 20260902002205 | 72 | 315 | 18.2 | 20.9 | 0.00 | 0.00 | 0.00 | 42 | 1015.8 |
| 20260902001704 | 72 | 318 | 7.8 | 18.2 | 0.00 | 0.00 | 0.00 | 42 | 1015.7 |
| 20260902001205 | 72 | 321 | 11.3 | 17.4 | 0.00 | 0.00 | 0.00 | 42 | 1015.8 |
| 20260902000705 | 72 | 326 | 7.8 | 14.8 | 0.00 | 0.00 | 0.00 | 43 | 1016.1 |
| 20260901235705 | 72 | 319 | 15.6 | 20.9 | 0.00 | 0.00 | 0.00 | 41 | 1016.0 |
| 20260901235205 | 72 | 319 | 14.8 | 20.0 | 0.00 | 0.00 | 0.00 | 41 | 1016.0 |
| 20260901234705 | 72 | 322 | 12.2 | 17.4 | 0.00 | 0.00 | 0.00 | 42 | 1016.1 |
| 20260901234205 | 71 | 332 | 12.2 | 17.4 | 0.00 | 0.00 | 0.00 | 44 | 1016.1 |
| 20260901232705 | 70 | 329 | 8.7 | 15.6 | 0.00 | 0.00 | 0.00 | 46 | 1016.4 |
| 20260901232205 | 69 | 333 | 10.4 | 17.4 | 0.00 | 0.00 | 0.00 | 47 | 1016.5 |
| 20260901231205 | 68 | 328 | 8.7 | 11.3 | 0.00 | 0.00 | 0.00 | 50 | 1016.6 |
| 20260901230704 | 68 | 331 | 8.7 | 10.4 | 0.00 | 0.00 | 0.00 | 49 | 1016.5 |
| 20260901230204 | 68 | 335 | 7.0 | 10.4 | 0.00 | 0.00 | 0.00 | 49 | 1016.6 |
| 20260901225705 | 68 | 324 | 7.8 | 11.3 | 0.00 | 0.00 | 0.00 | 49 | 1016.5 |
| 20260901225205 | 67 | 330 | 9.6 | 12.2 | 0.00 | 0.00 | 0.00 | 50 | 1016.7 |
| 20260901224705 | 67 | 322 | 10.4 | 13.0 | 0.00 | 0.00 | 0.00 | 50 | 1016.6 |
| 20260901224204 | 67 | 323 | 10.4 | 12.2 | 0.00 | 0.00 | 0.00 | 50 | 1016.5 |
| 20260901223704 | 67 | 321 | 10.4 | 12.2 | 0.00 | 0.00 | 0.00 | 50 | 1016.6 |
| 20260901223206 | 66 | 326 | 8.7 | 12.2 | 0.00 | 0.00 | 0.00 | 51 | 1016.8 |
| 20260901222705 | 66 | 326 | 9.6 | 12.2 | 0.00 | 0.00 | 0.00 | 51 | 1016.6 |
| 20260901221704 | 66 | 328 | 8.7 | 12.2 | 0.00 | 0.00 | 0.00 | 52 | 1016.7 |
| 20260901221205 | 65 | 323 | 8.7 | 11.3 | 0.00 | 0.00 | 0.00 | 52 | 1016.8 |
| 20260901220704 | 65 | 328 | 8.7 | 11.3 | 0.00 | 0.00 | 0.00 | 52 | 1016.8 |
| 20260901220205 | 65 | 324 | 7.8 | 10.4 | 0.00 | 0.00 | 0.00 | 52 | 1016.8 |
| 20260901215205 | 65 | 326 | 8.7 | 11.3 | 0.00 | 0.00 | 0.00 | 53 | 1016.9 |
| 20260901214204 | 65 | 327 | 7.8 | 10.4 | 0.00 | 0.00 | 0.00 | 53 | 1016.8 |
| 20260901213705 | 64 | 321 | 8.7 | 10.4 | 0.00 | 0.00 | 0.00 | 53 | 1016.8 |
| 20260901213205 | 64 | 322 | 8.7 | 11.3 | 0.00 | 0.00 | 0.00 | 53 | 1017.0 |
| 20260901212704 | 64 | 318 | 7.8 | 11.3 | 0.00 | 0.00 | 0.00 | 53 | 1016.9 |
| 20260901212204 | 64 | 315 | 9.6 | 11.3 | 0.00 | 0.00 | 0.00 | 53 | 1016.9 |
| 20260901211704 | 64 | 318 | 9.6 | 12.2 | 0.00 | 0.00 | 0.00 | 53 | 1016.8 |
| 20260901211205 | 64 | 315 | 9.6 | 12.2 | 0.00 | 0.00 | 0.00 | 53 | 1016.5 |
| 20260901210705 | 64 | 316 | 10.4 | 11.3 | 0.00 | 0.00 | 0.00 | 53 | 1016.7 |
| 20260901210205 | 64 | 317 | 10.4 | 12.2 | 0.00 | 0.00 | 0.00 | 53 | 1016.8 |
| 20260901204705 | 64 | 305 | 11.3 | 13.0 | 0.00 | 0.00 | 0.00 | 53 | 1016.7 |
| 20260901204204 | 64 | 306 | 10.4 | 11.3 | 0.00 | 0.00 | 0.00 | 53 | 1016.7 |
| 20260901203704 | 65 | 312 | 8.7 | 11.3 | 0.00 | 0.00 | 0.00 | 52 | 1016.7 |
| 20260901203205 | 65 | 314 | 11.3 | 12.2 | 0.00 | 0.00 | 0.00 | 52 | 1016.9 |
| 20260901202705 | 65 | 306 | 11.3 | 12.2 | 0.00 | 0.00 | 0.00 | 52 | 1016.9 |
| 20260901202204 | 64 | 303 | 10.4 | 11.3 | 0.00 | 0.00 | 0.00 | 53 | 1016.7 |
| 20260901200704 | 63 | 282 | 10.4 | 12.2 | 0.00 | 0.00 | 0.00 | 57 | 1017.1 |
| 20260901200204 | 63 | 275 | 7.8 | 8.7 | 0.00 | 0.00 | 0.00 | 58 | 1016.8 |
| 20260901193705 | 63 | 248 | 8.7 | 11.3 | 0.00 | 0.00 | 0.00 | 59 | 1016.7 |
| 20260901193205 | 64 | 311 | 7.8 | 8.7 | 0.00 | 0.00 | 0.00 | 59 | 1016.3 |
| 20260901192705 | 64 | 329 | 6.1 | 10.4 | 0.00 | 0.00 | 0.00 | 58 | 1016.1 |
| 20260901192204 | 64 | 332 | 6.1 | 10.4 | 0.00 | 0.00 | 0.00 | 58 | 1016.2 |
| 20260901191705 | 64 | 329 | 7.8 | 8.7 | 0.00 | 0.00 | 0.00 | 58 | 1016.2 |
| 20260901191205 | 63 | 330 | 7.8 | 10.4 | 0.00 | 0.00 | 0.00 | 57 | 1016.1 |
| 20260901190705 | 64 | 337 | 6.1 | 10.4 | 0.00 | 0.00 | 0.00 | 59 | 1016.0 |
| 20260901190204 | 64 | 341 | 6.1 | 10.4 | 0.00 | 0.00 | 0.00 | 58 | 1016.1 |
| 20260901185704 | 63 | 350 | 7.8 | 10.4 | 0.00 | 0.00 | 0.00 | 57 | 1016.1 |
| 20260901184205 | 63 | 348 | 7.8 | 10.4 | 0.00 | 0.00 | 0.00 | 60 | 1015.9 |
| 20260901183704 | 63 | 352 | 7.8 | 10.4 | 0.00 | 0.00 | 0.00 | 60 | 1016.0 |
| 20260901183205 | 63 | 342 | 7.0 | 8.7 | 0.00 | 0.00 | 0.00 | 60 | 1015.9 |
| 20260901182704 | 63 | 343 | 7.0 | 8.7 | 0.00 | 0.00 | 0.00 | 61 | 1016.0 |
| 20260901181204 | 63 | 355 | 5.2 | 7.8 | 0.00 | 0.00 | 0.00 | 60 | 1015.7 |
| 20260901180704 | 62 | 1 | 5.2 | 7.8 | 0.00 | 0.00 | 0.00 | 60 | 1015.7 |
| 20260901175704 | 62 | 348 | 6.1 | 7.8 | 0.00 | 0.00 | 0.00 | 61 | 1015.7 |
| 20260901175204 | 63 | 347 | 4.3 | 7.8 | 0.00 | 0.00 | 0.00 | 61 | 1015.6 |
| 20260901174204 | 63 | 345 | 6.1 | 7.0 | 0.00 | 0.00 | 0.00 | 58 | 1015.6 |
| 20260901173704 | 62 | 343 | 6.1 | 7.0 | 0.00 | 0.00 | 0.00 | 56 | 1015.5 |
| 20260901173204 | 62 | 342 | 6.1 | 7.8 | 0.00 | 0.00 | 0.00 | 56 | 1015.5 |
| 20260901172704 | 63 | 337 | 6.1 | 7.0 | 0.00 | 0.00 | 0.00 | 55 | 1015.7 |
| 20260901172204 | 63 | 343 | 4.3 | 7.0 | 0.00 | 0.00 | 0.00 | 55 | 1015.8 |
| 20260901171704 | 63 | 352 | 5.2 | 6.1 | 0.00 | 0.00 | 0.00 | 54 | 1015.7 |
| 20260901170204 | 63 | 342 | 7.0 | 8.7 | 0.00 | 0.00 | 0.00 | 54 | 1015.9 |
| 20260901165221 | 64 | 327 | 8.7 | 10.4 | 0.00 | 0.00 | 0.00 | 53 | 1016.0 |
| 20260901164720 | 64 | 325 | 8.7 | 10.4 | 0.00 | 0.00 | 0.00 | 53 | 1016.0 |
| 20260901164221 | 64 | 322 | 8.7 | 10.4 | 0.00 | 0.00 | 0.00 | 52 | 1016.0 |
| 20260901163721 | 64 | 331 | 8.7 | 10.4 | 0.00 | 0.00 | 0.00 | 52 | 1016.1 |
| 20260901163221 | 64 | 331 | 7.8 | 8.7 | 0.00 | 0.00 | 0.00 | 52 | 1016.1 |
| 20260901162721 | 64 | 324 | 7.0 | 7.8 | 0.00 | 0.00 | 0.00 | 52 | 1016.5 |
| 20260901162220 | 64 | 324 | 6.1 | 7.0 | 0.00 | 0.00 | 0.00 | 52 | 1016.6 |
| 20260901161721 | 64 | 324 | 5.2 | 6.1 | 0.00 | 0.00 | 0.00 | 52 | 1016.5 |
| 20260901160221 | 65 | 324 | 5.2 | 7.0 | 0.00 | 0.00 | 0.00 | 52 | 1016.6 |
| 20260901155721 | 65 | 330 | 5.2 | 6.1 | 0.00 | 0.00 | 0.00 | 51 | 1016.6 |
| 20260901155221 | 65 | 334 | 4.3 | 5.2 | 0.00 | 0.00 | 0.00 | 51 | 1016.7 |
| 20260901154721 | 65 | 333 | 4.3 | 5.2 | 0.00 | 0.00 | 0.00 | 51 | 1017.0 |
| 20260901153721 | 65 | 341 | 4.3 | 6.1 | 0.00 | 0.00 | 0.00 | 51 | 1017.0 |
| 20260901153220 | 65 | 346 | 6.1 | 7.0 | 0.00 | 0.00 | 0.00 | 51 | 1017.0 |
| 20260901152721 | 65 | 346 | 6.1 | 7.8 | 0.00 | 0.00 | 0.00 | 51 | 1016.9 |
| 20260901152221 | 65 | 350 | 6.1 | 7.8 | 0.00 | 0.00 | 0.00 | 51 | 1017.1 |
| 20260901151721 | 65 | 353 | 6.1 | 7.0 | 0.00 | 0.00 | 0.00 | 51 | 1017.0 |
| 20260901151221 | 65 | 353 | 5.2 | 7.8 | 0.00 | 0.00 | 0.00 | 51 | 1017.0 |
| 20260901150721 | 65 | 357 | 5.2 | 7.8 | 0.00 | 0.00 | 0.00 | 51 | 1017.1 |
| 20260901150221 | 65 | 355 | 4.3 | 7.0 | 0.00 | 0.00 | 0.00 | 52 | 1017.1 |
| 20260901145720 | 65 | 1 | 5.2 | 7.0 | 0.00 | 0.00 | 0.00 | 52 | 1017.2 |
| 20260901145220 | 65 | 358 | 5.2 | 6.1 | 0.00 | 0.00 | 0.00 | 53 | 1017.3 |
| 20260901144721 | 65 | 347 | 4.3 | 7.8 | 0.00 | 0.00 | 0.00 | 52 | 1017.2 |
| 20260901143721 | 65 | 353 | 6.1 | 8.7 | 0.00 | 0.00 | 0.00 | 50 | 1017.2 |
| 20260901143221 | 65 | 345 | 6.1 | 7.8 | 0.00 | 0.00 | 0.00 | 49 | 1017.3 |
| 20260901142720 | 65 | 347 | 6.1 | 8.7 | 0.00 | 0.00 | 0.00 | 49 | 1017.2 |
| 20260901142220 | 65 | 338 | 6.1 | 7.8 | 0.00 | 0.00 | 0.00 | 49 | 1017.3 |
| 20260901141720 | 65 | 332 | 6.1 | 8.7 | 0.00 | 0.00 | 0.00 | 49 | 1017.2 |
| 20260901141221 | 65 | 333 | 7.0 | 7.8 | 0.00 | 0.00 | 0.00 | 49 | 1017.2 |
| 20260901140721 | 65 | 337 | 6.1 | 10.4 | 0.00 | 0.00 | 0.00 | 48 | 1017.3 |
| 20260901140220 | 65 | 328 | 8.7 | 10.4 | 0.00 | 0.00 | 0.00 | 48 | 1017.4 |
| 20260901135721 | 65 | 321 | 7.8 | 10.4 | 0.00 | 0.00 | 0.00 | 48 | 1017.4 |
| 20260901133721 | 66 | 333 | 5.2 | 7.0 | 0.00 | 0.00 | 0.00 | 49 | 1017.8 |
| 20260901133220 | 66 | 328 | 5.2 | 7.0 | 0.00 | 0.00 | 0.00 | 49 | 1017.7 |
| 20260901132221 | 66 | 341 | 5.2 | 7.0 | 0.00 | 0.00 | 0.00 | 48 | 1018.0 |
| 20260901131720 | 66 | 352 | 4.3 | 7.0 | 0.00 | 0.00 | 0.00 | 47 | 1017.8 |
| 20260901131220 | 66 | 0 | 6.1 | 7.8 | 0.00 | 0.00 | 0.00 | 47 | 1017.9 |
| 20260901130721 | 66 | 1 | 6.1 | 8.7 | 0.00 | 0.00 | 0.00 | 47 | 1018.1 |
| 20260901130221 | 66 | 3 | 6.1 | 8.7 | 0.00 | 0.00 | 0.00 | 46 | 1017.9 |
| 20260901125720 | 66 | 358 | 6.1 | 8.7 | 0.00 | 0.00 | 0.00 | 46 | 1017.9 |
| 20260901125221 | 67 | 1 | 6.1 | 7.8 | 0.00 | 0.00 | 0.00 | 46 | 1017.9 |
| 20260901124721 | 67 | 0 | 5.2 | 7.0 | 0.00 | 0.00 | 0.00 | 46 | 1018.2 |
| 20260901124221 | 67 | 351 | 5.2 | 7.8 | 0.00 | 0.00 | 0.00 | 46 | 1018.0 |
| 20260901123721 | 67 | 352 | 6.1 | 10.4 | 0.00 | 0.00 | 0.00 | 45 | 1018.0 |
| 20260901123221 | 67 | 346 | 7.8 | 10.4 | 0.00 | 0.00 | 0.00 | 46 | 1018.2 |
| 20260901122720 | 67 | 345 | 7.0 | 10.4 | 0.00 | 0.00 | 0.00 | 47 | 1018.3 |
| 20260901122221 | 67 | 341 | 8.7 | 10.4 | 0.00 | 0.00 | 0.00 | 48 | 1018.0 |
| 20260901121720 | 67 | 338 | 7.8 | 10.4 | 0.00 | 0.00 | 0.00 | 47 | 1018.3 |
| 20260901121221 | 68 | 343 | 7.8 | 11.3 | 0.00 | 0.00 | 0.00 | 46 | 1018.1 |
| 20260901120721 | 68 | 341 | 6.1 | 10.4 | 0.00 | 0.00 | 0.00 | 45 | 1018.1 |
| 20260901120221 | 68 | 349 | 8.7 | 11.3 | 0.00 | 0.00 | 0.00 | 45 | 1018.2 |
| 20260901115720 | 69 | 350 | 11.3 | 13.0 | 0.00 | 0.00 | 0.00 | 44 | 1018.2 |
| 20260901115220 | 69 | 348 | 10.4 | 13.0 | 0.00 | 0.00 | 0.00 | 43 | 1018.3 |
| 20260901114720 | 69 | 344 | 10.4 | 12.2 | 0.00 | 0.00 | 0.00 | 42 | 1018.3 |
| 20260901114220 | 69 | 332 | 11.3 | 14.8 | 0.00 | 0.00 | 0.00 | 42 | 1018.4 |
| 20260901113720 | 69 | 325 | 11.3 | 14.8 | 0.00 | 0.00 | 0.00 | 41 | 1018.7 |